Location: Carabito
(9.8355°N, 67.9249°W)
Time: 22:29:27
(UTC+00:00)

Hubble Space Telescope - Pass Details

Date: 23 May 2024
Orbit: 510 x 514 km, 28.5° (Epoch: 23 June)

Event Time Altitude Azimuth Distance (km) Brightness Sun altitude
Rises 23:59:07 0° 244° (WSW) 2,608 4.8 -17.2°
Reaches altitude 10° 00:01:22 10° 245° (WSW) 1,721 3.9 -17.7°
Maximum altitude 00:05:19 77° 331° (NNW) 523 0.7 -18.5°
Enters shadow 00:07:17 29° 54° (NE) 961 1.8 -19.0°
